ITUPSAT 1

Satellite information

Favourite Embed

Satellite Type and Status

PAYLOADIN ORBIT

Key statistics

Satellite ITUPSAT 1 at a glance.

Uptime

5926

Days in orbit

Revolutions

≈ 14.6

Per day

Orbit

SSO

Sun Synchronous Orbit

Inclination

98.4

Latest

Satellite identification and parameters

Extended collection of information and parameters for ITUPSAT 1.

Object identification

Identified? True

Debris? False

Object name: ITUPSAT 1

International designator: 2009-051E

Object number (NORAD): 35935

Object ID (CCSDS): 35935

Country: TURKEY (TURK)

Current information (Y/N): Y

RCS size: SMALL

Orbital parameters

Period: 98.628 minutes

Inclination: 98.4167 deg

SMA: 7071.195 km

Apoapsis: 699.226 km

Periapsis: 686.894 km

RAAN: 246.5978 deg

Eccentricy: 0.00087197

Argument of periapsis: 92.635 deg

Mean anomaly: 267.5848 deg

Mean motion: 14.60035819 rev/day

Mean motion (dot): 0.00001564 rev/day2

B* drag term: 0.00033563809 1/REarth

Two-line elements (TLE)

Creation date: Dec. 14, 2025, 3:07 a.m.

Reference frame: TEME

Reference center: EARTH

Epoch: Dec. 13, 2025, 2:43 p.m. UTC

TLE line 0: 0 ITUPSAT 1

TLE line 1: 1 35935U 09051E 25347.61376983 .00001564 00000-0 33564-3 0 9994

TLE line 2: 2 35935 98.4167 246.5978 0008720 92.6350 267.5848 14.60035819861658

Live tracking on map

Real-time ground track for satellite ITUPSAT 1.

In-orbit conjunctions

There are no conjunctions computed for ITUPSAT 1, at the moment. Check back to stay up to date, as we update our databases every day.

Go to all conjunctions

Associated space launch

Oceansat-2 is an earth observation and oceanography satellite operated by ISRO.

ITUPSAT 1 was lifted into orbit during the mission ‘PSLV | Oceansat-2’, on board a PSLV space rocket.

The launch took place on Sept. 23, 2009, 6:21 a.m. from Satish Dhawan Space Centre First Launch Pad.

For more information about the launch, click the button.

Launch to space PSLV | Oceansat-2
PSLV | Oceansat-2

Agency: N/A

Status: Launch Successful

Launch date: Sept. 23, 2009, 6:21 a.m. UTC

Rocket: PSLV

Launch pad: Satish Dhawan Space Centre First Launch Pad

Location: Satish Dhawan Space Centre, India

...

Latest news about this satellite

There are no fresh news available about this satellite. Check back as we update our databases every day.


Newsletter sign-up

Weekly statistics, charts and insights to help you stay on top of the space industry.